Location: Wildlife_Club
(35.6000°N, 81.4330°W)
Time: 23:11:18
(UTC-04:00)

A-11 Canister half - Pass Details

Date: 01 July 2019
Orbit: 1514 x 1685 km, 47.2° (Epoch: 19 July)

Event Time Altitude Azimuth Distance (km) Brightness Sun altitude
Rises 14:07:56 0° 299° (WNW) 4,878 11.7 75.0°
Reaches altitude 10° 14:11:15 10° 304° (NW) 3,868 11.3 74.6°
Maximum altitude 14:20:52 55° 21° (NNE) 1,860 10.2 73.3°
Drops below altitude 10° 14:30:06 10° 98° (E) 3,729 11.0 71.9°
Sets 14:33:14 0° 103° (ESE) 4,692 11.4 71.4°
